When you browse on this site, cookies collect data to enhance your experience and personalize the content and advertising you see.
Visit our Privacy Policy to learn more. By continuing to use the site, you agree to this use of cookies and data.
  • In United Kingdom
  • List of Countries
  • For 7 days
  • Water Temperature
  • Satellite Maps
  • Weather Map
  • Weather Widgets
  • user-avatar
    Login

    Hourly Weather Madaniymekhnat

    Today, 20 March, Wednesday

    Time Temperature Precipitation Wind Pressure Humidity
    00:00 +15°C° 0.3 mm 2 mps 722 mmHg 57%
    01:00 +14°C° 0.3 mm 2 mps 723 mmHg 61%
    02:00 +14°C° 0.3 mm 1 mps 723 mmHg 65%
    03:00 +13°C° 0.7 mm 1 mps 723 mmHg 68%
    04:00 +13°C° 0.7 mm 1 mps 723 mmHg 72%
    05:00 +13°C° 0.7 mm 1 mps 723 mmHg 76%
    06:00 +12°C° 0.8 mm 1 mps 723 mmHg 78%
    07:00 +12°C° 0.8 mm 1 mps 724 mmHg 79%
    08:00 +12°C° 0.8 mm 1 mps 724 mmHg 81%
    09:00 +13°C° 0.5 mm 1 mps 724 mmHg 79%
    10:00 +13°C° 0.5 mm 2 mps 723 mmHg 76%
    11:00 +13°C° 0.5 mm 2 mps 723 mmHg 74%
    12:00 +14°C° 0.1 mm 2 mps 723 mmHg 68%
    13:00 +16°C° 0.1 mm 2 mps 723 mmHg 61%
    14:00 +18°C° 0.1 mm 1 mps 723 mmHg 54%
    15:00 +18°C° 0 mm 1 mps 723 mmHg 51%
    16:00 +18°C° 0 mm 1 mps 723 mmHg 49%
    17:00 +19°C° 0 mm 1 mps 723 mmHg 46%
    18:00 +18°C° 0.1 mm 1 mps 724 mmHg 49%
    19:00 +18°C° 0.1 mm 1 mps 724 mmHg 52%
    20:00 +16°C° 0.1 mm 1 mps 725 mmHg 54%
    21:00 +16°C° 0.2 mm 1 mps 725 mmHg 56%
    22:00 +15°C° 0.2 mm 1 mps 725 mmHg 58%
    23:00 +15°C° 0.2 mm 1 mps 726 mmHg 59%

    Tomorrow, 21 March, Thursday

    Time Temperature Precipitation Wind Pressure Humidity
    00:00 +15°C° 0.2 mm 1 mps 726 mmHg 60%
    01:00 +15°C° 0.2 mm 1 mps 726 mmHg 61%
    02:00 +14°C° 0.2 mm 1 mps 726 mmHg 62%
    03:00 +14°C° 0 mm 1 mps 726 mmHg 63%
    04:00 +14°C° 0 mm 1 mps 726 mmHg 63%
    05:00 +13°C° 0 mm 1 mps 726 mmHg 64%
    06:00 +14°C° 0 mm 1 mps 726 mmHg 62%
    07:00 +14°C° 0 mm 1 mps 727 mmHg 60%
    08:00 +14°C° 0 mm 1 mps 727 mmHg 57%
    09:00 +16°C° 0 mm 1 mps 727 mmHg 53%
    10:00 +18°C° 0 mm 1 mps 727 mmHg 49%
    11:00 +17°C° 0 mm 0 mps 727 mmHg 45%
    12:00 +20°C° 0 mm 1 mps 726 mmHg 42%
    13:00 +21°C° 0 mm 1 mps 726 mmHg 40%
    14:00 +21°C° 0 mm 1 mps 726 mmHg 37%
    15:00 +21°C° 0 mm 1 mps 726 mmHg 36%
    16:00 +21°C° 0 mm 1 mps 726 mmHg 35%
    17:00 +21°C° 0 mm 1 mps 726 mmHg 34%
    18:00 +21°C° 0.1 mm 1 mps 727 mmHg 36%
    19:00 +20°C° 0.1 mm 1 mps 727 mmHg 39%
    20:00 +19°C° 0.1 mm 1 mps 728 mmHg 42%
    21:00 +18°C° 0.1 mm 1 mps 728 mmHg 44%
    22:00 +18°C° 0.1 mm 1 mps 728 mmHg 46%
    23:00 +16°C° 0.1 mm 2 mps 728 mmHg 48%

    Day after tomorrow, 22 March, Friday

    Time Temperature Precipitation Wind Pressure Humidity
    00:00 +16°C° 0 mm 2 mps 728 mmHg 48%
    01:00 +15°C° 0 mm 2 mps 728 mmHg 48%
    02:00 +15°C° 0 mm 1 mps 728 mmHg 49%
    03:00 +14°C° 0 mm 2 mps 728 mmHg 48%
    04:00 +14°C° 0 mm 2 mps 728 mmHg 47%
    05:00 +13°C° 0 mm 2 mps 728 mmHg 47%
    06:00 +14°C° 0 mm 2 mps 728 mmHg 44%
    07:00 +14°C° 0 mm 2 mps 728 mmHg 42%
    08:00 +15°C° 0 mm 2 mps 728 mmHg 39%
    09:00 +16°C° 0 mm 2 mps 727 mmHg 35%
    10:00 +18°C° 0 mm 2 mps 727 mmHg 30%
    11:00 +20°C° 0 mm 3 mps 726 mmHg 26%
    12:00 +21°C° 0 mm 2 mps 726 mmHg 24%
    13:00 +23°C° 0 mm 2 mps 725 mmHg 21%
    14:00 +23°C° 0 mm 2 mps 724 mmHg 19%
    15:00 +24°C° 0 mm 2 mps 724 mmHg 19%
    16:00 +24°C° 0 mm 2 mps 724 mmHg 18%
    17:00 +24°C° 0 mm 3 mps 724 mmHg 18%
    18:00 +21°C° 0 mm 2 mps 724 mmHg 22%
    19:00 +20°C° 0 mm 2 mps 725 mmHg 26%
    20:00 +19°C° 0 mm 2 mps 726 mmHg 29%
    21:00 +18°C° 0 mm 2 mps 726 mmHg 31%
    22:00 +17°C° 0 mm 2 mps 725 mmHg 33%
    23:00 +16°C° 0 mm 2 mps 725 mmHg 34%

    23 March, Saturday

    Time Temperature Precipitation Wind Pressure Humidity
    00:00 +16°C° 0 mm 2 mps 725 mmHg 34%
    01:00 +15°C° 0 mm 2 mps 725 mmHg 34%
    02:00 +15°C° 0 mm 2 mps 725 mmHg 34%
    03:00 +14°C° 0 mm 2 mps 725 mmHg 34%
    04:00 +14°C° 0 mm 1 mps 725 mmHg 34%
    05:00 +13°C° 0 mm 1 mps 725 mmHg 34%
    06:00 +14°C° 0 mm 1 mps 725 mmHg 33%
    07:00 +14°C° 0 mm 1 mps 725 mmHg 32%
    08:00 +14°C° 0 mm 0 mps 725 mmHg 31%
    09:00 +15°C° 0 mm 0 mps 725 mmHg 29%
    10:00 +18°C° 0 mm 1 mps 724 mmHg 27%
    11:00 +19°C° 0 mm 1 mps 724 mmHg 25%
    12:00 +20°C° 0 mm 1 mps 724 mmHg 22%
    13:00 +20°C° 0 mm 2 mps 724 mmHg 19%
    14:00 +21°C° 0 mm 2 mps 724 mmHg 17%
    15:00 +21°C° 0 mm 3 mps 725 mmHg 19%
    16:00 +21°C° 0 mm 4 mps 725 mmHg 21%
    17:00 +21°C° 0 mm 5 mps 726 mmHg 23%
    18:00 +20°C° 0 mm 5 mps 726 mmHg 31%
    19:00 +17°C° 0 mm 5 mps 727 mmHg 39%
    20:00 +16°C° 0 mm 5 mps 728 mmHg 46%
    21:00 +17°C° 0 mm 4 mps 728 mmHg 50%
    22:00 +16°C° 0 mm 3 mps 728 mmHg 54%
    23:00 +15°C° 0 mm 1 mps 728 mmHg 58%

    24 March, Sunday

    Time Temperature Precipitation Wind Pressure Humidity
    00:00 +15°C° 0 mm 1 mps 728 mmHg 61%
    01:00 +14°C° 0 mm 1 mps 728 mmHg 64%
    02:00 +14°C° 0 mm 1 mps 728 mmHg 67%
    03:00 +13°C° 0 mm 1 mps 728 mmHg 67%
    04:00 +12°C° 0 mm 0 mps 728 mmHg 67%
    05:00 +12°C° 0 mm 0 mps 728 mmHg 67%
    06:00 +12°C° 0 mm 0 mps 728 mmHg 63%
    07:00 +14°C° 0 mm 1 mps 727 mmHg 58%
    08:00 +14°C° 0 mm 1 mps 727 mmHg 53%
    09:00 +16°C° 0 mm 1 mps 727 mmHg 45%
    10:00 +18°C° 0 mm 1 mps 726 mmHg 37%
    11:00 +20°C° 0 mm 1 mps 725 mmHg 29%
    12:00 +21°C° 0 mm 1 mps 725 mmHg 26%
    13:00 +22°C° 0 mm 1 mps 725 mmHg 23%
    14:00 +23°C° 0 mm 1 mps 724 mmHg 19%
    15:00 +23°C° 0 mm 1 mps 724 mmHg 18%
    16:00 +23°C° 0 mm 1 mps 724 mmHg 18%
    17:00 +21°C° 0 mm 0 mps 724 mmHg 17%
    18:00 +22°C° 0 mm 1 mps 725 mmHg 18%
    19:00 +22°C° 0 mm 1 mps 726 mmHg 20%
    20:00 +21°C° 0 mm 1 mps 726 mmHg 22%
    21:00 +20°C° 0 mm 1 mps 727 mmHg 24%
    22:00 +18°C° 0 mm 2 mps 727 mmHg 26%
    23:00 +17°C° 0 mm 3 mps 727 mmHg 29%

    25 March, Monday

    Time Temperature Precipitation Wind Pressure Humidity
    00:00 +16°C° 0 mm 3 mps 727 mmHg 29%
    01:00 +16°C° 0 mm 3 mps 726 mmHg 30%
    02:00 +14°C° 0 mm 3 mps 726 mmHg 31%
    03:00 +15°C° 0 mm 2 mps 726 mmHg 31%
    04:00 +14°C° 0 mm 2 mps 726 mmHg 31%
    05:00 +14°C° 0 mm 2 mps 726 mmHg 31%
    06:00 +14°C° 0 mm 2 mps 726 mmHg 30%
    07:00 +15°C° 0 mm 2 mps 725 mmHg 29%
    08:00 +16°C° 0 mm 2 mps 725 mmHg 28%
    09:00 +18°C° 0 mm 2 mps 724 mmHg 24%
    10:00 +20°C° 0 mm 2 mps 723 mmHg 19%
    11:00 +23°C° 0 mm 2 mps 723 mmHg 15%
    12:00 +24°C° 0 mm 2 mps 722 mmHg 14%
    13:00 +25°C° 0 mm 1 mps 721 mmHg 12%
    14:00 +27°C° 0 mm 1 mps 721 mmHg 10%
    15:00 +27°C° 0 mm 2 mps 720 mmHg 11%
    16:00 +27°C° 0 mm 2 mps 720 mmHg 11%
    17:00 +27°C° 0 mm 2 mps 720 mmHg 11%
    18:00 +25°C° 0 mm 2 mps 720 mmHg 14%
    19:00 +24°C° 0 mm 2 mps 721 mmHg 16%
    20:00 +21°C° 0 mm 2 mps 721 mmHg 19%
    21:00 +21°C° 0 mm 2 mps 722 mmHg 19%
    22:00 +20°C° 0 mm 2 mps 722 mmHg 20%
    23:00 +20°C° 0 mm 2 mps 722 mmHg 21%
    Show more